Regional Weather Roundup
Issued by NWS Little Rock, AR

Home | Current Version | Previous Version | Graphics & Text | Print | Product List | Glossary On
Versions: 1 2 3 4 5 6 7 8 9 10 11 12 13 14 15 16 17 18 19 20 21 22 23 24 25 26 27
000
ASUS44 KLZK 221205
RWRLZK

WEATHER ROUNDUP FOR ARKANSAS
NATIONAL WEATHER SERVICE LITTLE ROCK AR
700 AM CDT TUE APR 22 2014

NOTE: "FAIR" INDICATES FEW OR NO CLOUDS BELOW 12,000 FEET WITH NO
SIGNIFICANT WEATHER AND/OR OBSTRUCTIONS TO VISIBILITY.

ARZ001-003-010-029-221300-
NORTHWEST ARKANSAS

CITY           SKY/WX    TMP DP  RH WIND       PRES   REMARKS
FAYETTEVILLE   FOG       47  47 100 CALM      30.06R VSB 1/4
6HR MIN TEMP:  46; 6HR MAX TEMP:  55; 6HR PCP:  0.01;

FORT SMITH     FOG       56  55  97 SW5       30.03R VSB 1/4
6HR MIN TEMP:  56; 6HR MAX TEMP:  60;

HARRISON       CLEAR     55  52  89 NW3       30.05R
6HR MIN TEMP:  55; 6HR MAX TEMP:  60;

BENTONVILLE    CLEAR     54  50  87 N7        30.08R
6HR MIN TEMP:  54; 6HR MAX TEMP:  57;

ROGERS         CLEAR     53  51  93 N7        30.08R
6HR MIN TEMP:  52; 6HR MAX TEMP:  56; 6HR PCP:  0.01;

SILOAM SPGS    CLEAR     52  46  82 N7        30.08R
6HR MIN TEMP:  50; 6HR MAX TEMP:  55;

HIGHFILL       CLEAR     53  52  96 N8        30.07R
6HR MIN TEMP:  53; 6HR MAX TEMP:  58;

SPRINGDALE     CLEAR     55  54  94 N8        30.08R
$$

ARZ004-005-016-221300-
NORTH CENTRAL ARKANSAS

CITY           SKY/WX    TMP DP  RH WIND       PRES   REMARKS
BATESVILLE     CLEAR     61  57  88 W5        29.96R
6HR MIN TEMP:  61; 6HR MAX TEMP:  61;

FLIPPIN        CLEAR     59  48  67 NW8       30.02R
6HR MIN TEMP:  57; 6HR MAX TEMP:  61;

MTN HOME       CLEAR     56  53  90 NW5       30.01R
6HR MIN TEMP:  56; 6HR MAX TEMP:  60; 6HR PCP:  0.01;

$$

ARZ040-041-221300-
WEST CENTRAL ARKANSAS

CITY           SKY/WX    TMP DP  RH WIND       PRES   REMARKS
MENA           CLEAR     59 N/A N/A CALM      30.02R
MOUNT IDA      FOG       58  57  97 CALM      29.98R VSB 1
6HR MIN TEMP:  56; 6HR MAX TEMP:  59;

$$

ARZ009-017-025-026-028-221300-
NORTHEAST ARKANSAS

CITY           SKY/WX    TMP DP  RH WIND       PRES   REMARKS
CORNING        FAIR      61  61 100 N10       29.95R
JONESBORO      PTCLDY    62  59  90 N6        29.93R
6HR MIN TEMP:  61; 6HR MAX TEMP:  63; 6HR PCP:  0.01;

NEWPORT        CLEAR     61  61 100 NW14      29.95R
6HR MIN TEMP:  60; 6HR MAX TEMP:  62; 6HR PCP: TRACE;

WALNUT RIDGE   CLEAR     61  57  88 N10       29.95R
6HR MIN TEMP:  61; 6HR MAX TEMP:  63;

BLYTHEVILLE    MOCLDY    62  61  96 NW8       29.92R FOG
6HR MIN TEMP:  60; 6HR MAX TEMP:  63; 6HR PCP: TRACE;

$$

ARZ022-023-033-042-044-221300-
CENTRAL ARKANSAS

CITY           SKY/WX    TMP DP  RH WIND       PRES   REMARKS
LITTLE ROCK    CLOUDY    63  60  90 NW9       29.97R FOG
6HR MIN TEMP:  62; 6HR MAX TEMP:  63;

N LITTLE ROCK    N/A     61  61 100 NW8       29.97R
6HR MIN TEMP:  61; 6HR MAX TEMP:  62;

JACKSONVILLE   MOCLDY    61  61 100 NW6       29.97R
6HR MIN TEMP:  60; 6HR MAX TEMP:  62;

SEARCY         CLEAR     57  57 100 W3        29.96R FOG
6HR MIN TEMP:  55; 6HR MAX TEMP:  61;

HOT SPRINGS    PTCLDY    59  58  96 W3        29.98R FOG
6HR MIN TEMP:  59; 6HR MAX TEMP:  62;

RUSSELLVILLE   CLOUDY    61  59  93 NW5       29.99R FOG
6HR MIN TEMP:  60; 6HR MAX TEMP:  63;

CLINTON        FAIR      63  57  82 NW6       29.99R
$$

ARZ036-221300-
EAST ARKANSAS

CITY           SKY/WX    TMP DP  RH WIND       PRES   REMARKS
WEST MEMPHIS   CLOUDY    61  61 100 CALM      29.92R
6HR MIN TEMP:  58; 6HR MAX TEMP:  63; 6HR PCP: TRACE;

$$

ARZ050-053-066-070-073-221300-
SOUTHWEST ARKANSAS

CITY           SKY/WX    TMP DP  RH WIND       PRES   REMARKS
ARKADELPHIA    FAIR      59  59 100 CALM      29.99R
6HR MIN TEMP:  58; 6HR MAX TEMP:  64;

CAMDEN         CLOUDY    61  59  94 MISG      29.98R FOG
TEXARKANA      CLEAR     57  55  93 CALM      30.00R
6HR MIN TEMP:  56; 6HR MAX TEMP:  63;

EL DORADO      CLOUDY    61  60  97 NW7       29.98R
6HR MIN TEMP:  61; 6HR MAX TEMP:  63;

DE QUEEN       FOG       51  51 100 CALM      29.99R VSB 1/4
6HR MIN TEMP:  50; 6HR MAX TEMP:  57;

$$

ARZ056-057-069-221300-
SOUTHEAST ARKANSAS

CITY           SKY/WX    TMP DP  RH WIND       PRES   REMARKS
PINE BLUFF     MOCLDY    61  59  94 W5        29.96R FOG
6HR MIN TEMP:  59; 6HR MAX TEMP:  64;

STUTTGART      CLOUDY    61  59  94 W8        29.96R VSB 1/2
6HR MIN TEMP:  59; 6HR MAX TEMP:  63; 6HR PCP:  0.01;

MONTICELLO     CLOUDY    63  61  93 VRB3      29.95R FOG
6HR MIN TEMP:  62; 6HR MAX TEMP:  63; 6HR PCP:  0.86;


$$





USA.gov is the U.S. government's official web portal to all federal, state and local government web resources and services.